This is the latest recevied weather packets stored in our database for station/object E20ZNR-1. If no packets are shown the sender has not sent any weather packets the latest 10 day(s).
| Time | Temp. | Humidity | Pressure | Rain* | Wind** | Luminosity | Snow |
|---|---|---|---|---|---|---|---|
| 1777818675 | 30° C | 94% | 1004 hPa | - | - | 0 W/m² | - |
| 1777817750 | 30° C | 91% | 1004 hPa | - | - | 0 W/m² | - |
| 1777816826 | 30° C | 94% | 1004 hPa | - | - | 0 W/m² | - |
| 1777815901 | 30° C | 94% | 1004 hPa | - | - | 0 W/m² | - |
| 1777814976 | 29.44° C | 96% | 1004 hPa | - | - | 0 W/m² | - |
| 1777814050 | 28.89° C | 99% | 1004 hPa | - | - | 0 W/m² | - |
| 1777813125 | 29.44° C | 94% | 1004 hPa | - | - | 0 W/m² | - |
| 1777812200 | 29.44° C | 93% | 1003 hPa | - | - | 0 W/m² | - |
| 1777811276 | 29.44° C | 88% | 1003 hPa | - | - | 0 W/m² | - |
| 1777810351 | 29.44° C | 87% | 1003 hPa | - | - | 0 W/m² | - |
| 1777809426 | 30° C | 75% | 1003 hPa | - | - | 0 W/m² | - |
| 1777808500 | 30° C | 73% | 1003 hPa | - | - | 0 W/m² | - |
| 1777807576 | 30.56° C | 72% | 1003 hPa | - | - | 0 W/m² | - |
| 1777806651 | 31.67° C | 69% | 1003 hPa | - | - | 0 W/m² | - |
| 1777805726 | 33.33° C | 62% | 1002 hPa | - | - | 0 W/m² | - |
| 1777804800 | 34.44° C | 64% | 1001 hPa | - | - | 0 W/m² | - |
| 1777803876 | 34.44° C | 68% | 1001 hPa | - | - | 0 W/m² | - |
| 1777802950 | 34.44° C | 66% | 1001 hPa | - | - | 0 W/m² | - |
| 1777802025 | 34.44° C | 66% | 1001 hPa | - | - | 0 W/m² | - |
| 1777801100 | 34.44° C | 69% | 1001 hPa | - | - | 0 W/m² | - |
| 1777800176 | 35° C | 58% | 1000 hPa | - | - | 0 W/m² | - |
| 1777799251 | 35.56° C | 57% | 1001 hPa | - | - | 0 W/m² | - |
| 1777798326 | 36.11° C | 47% | 1001 hPa | - | - | 0 W/m² | - |
| 1777797400 | 37.22° C | 48% | 1001 hPa | - | - | 0 W/m² | - |
| 1777796476 | 38.89° C | 47% | 1001 hPa | - | - | 0 W/m² | - |
* Rain since midnight (hover to see other rain measurements)
** Current wind speed in m/s (hover to see current wind gust speed)